COSMOS 1624

Satellite information

Favourite Embed

Satellite Type and Status

PAYLOADIN ORBIT

Key statistics

Satellite COSMOS 1624 at a glance.

Uptime

14779

Days in orbit

Revolutions

≈ 14.3

Per day

Orbit

LEO

Low Earth Orbit

Inclination

74.0

Latest

Satellite identification and parameters

Extended collection of information and parameters for COSMOS 1624.

Object identification

Identified? True

Debris? False

Object name: COSMOS 1624

International designator: 1985-006A

Object number (NORAD): 15482

Object ID (CCSDS): 15482

Country: COMMONWEALTH OF INDEPENDENT STATES (CIS)

Current information (Y/N): Y

RCS size: LARGE

Orbital parameters

Period: 100.43 minutes

Inclination: 74.0423 deg

SMA: 7157.099 km

Apoapsis: 788.473 km

Periapsis: 769.455 km

RAAN: 109.9907 deg

Eccentricy: 0.0013286

Argument of periapsis: 76.9282 deg

Mean anomaly: 41.1005 deg

Mean motion: 14.338286 rev/day

Mean motion (dot): 0.00000107 rev/day2

B* drag term: 0.000047802 1/REarth

Two-line elements (TLE)

Creation date: July 4, 2025, 6:39 p.m.

Reference frame: TEME

Reference center: EARTH

Epoch: July 4, 2025, 6:20 a.m. UTC

TLE line 0: 0 COSMOS 1624

TLE line 1: 1 15482U 85006A 25185.26438872 .00000107 00000-0 47802-4 0 9993

TLE line 2: 2 15482 74.0423 109.9907 0013286 76.9282 41.1005 14.33828600114395

Live tracking on map

Real-time ground track for satellite COSMOS 1624.

In-orbit conjunctions

A list of the most updated potential collisions computed for object COSMOS 1624.

Target Orbit TCA Probability of collision Miss distance Type
CZ-6A DEB LEO 2025-06-16 13:53:09 0.0004269612 476.0 (m) DEBRIS
COSMOS 1275 DEB LEO 2025-05-21 01:37:06 0.0008152935 805.0 (m) DEBRIS
NOAA 16 DEB SSO 2025-01-18 23:41:17 0.0002290846 494.0 (m) DEBRIS
DMSP 5D-2 F13 DEB SSO 2025-01-08 09:20:22 0.0001397668 417.0 (m) DEBRIS
CZ-6A DEB SSO 2025-01-01 10:38:48 0.0002375919 349.0 (m) DEBRIS

Associated space launch

Military communications satellite

COSMOS 1624 was lifted into orbit during the mission ‘Kosmos-3M | Strela-2M 36’, on board a Kosmos-3M space rocket.

The launch took place on Jan. 17, 1985, 5:46 p.m. from 132/1 (132L).

For more information about the launch, click the button.

Launch to space Kosmos-3M | Strela-2M 36
Kosmos-3M | Strela-2M 36

Agency: N/A

Status: Launch Successful

Launch date: Jan. 17, 1985, 5:46 p.m. UTC

Rocket: Kosmos-3M

Launch pad: 132/1 (132L)

Location: Plesetsk Cosmodrome, Russian Federation

...

Latest news about this satellite

There are no fresh news available about this satellite. Check back as we update our databases every day.


Newsletter sign-up

Weekly statistics, charts and insights to help you stay on top of the space industry.